User: anonymous   Login
Location: Unspecified
(0.0000°N, 0.0000°E)
Time: 12:29:23
(UTC+00:00)
Language:

TECSAR - Orbit

View from above orbital plane
View from above orbital plane
View from above satellite
View from above satellite

Ground track
Ground track

The orbit data is extracted from the following two-line orbital elements,

1 32476U 08002A   15216.10323932 0.00000000  00000-0  00000-0 0    03
2 32476  41.0286 138.3004 0005999 220.9369 139.0625 15.15825459    08
Epoch (UTC): 04 August 2015 02:28:39
Eccentricity: 0.0005999
inclination: 41.0286°
perigee height: 514 km
apogee height: 522 km
right ascension of ascending node: 138.3004°
argument of perigee: 220.9369°
revolutions per day: 15.15825459
mean anomaly at epoch: 139.0625°
orbit number at epoch: 0

The dashed part of the orbit path shows where the satellite is in the earth's shadow,  

DLR